Voltar ao catálogo

YAOGAN-30 S

AtivoMilitarVLEO
NORAD 45461·PAYLOAD·🇨🇳 China

Lançado Mar 24, 2020 de Xichang Satellite Launch Center

Loading…

Próximas Passagens (próximas 24 horas)

TLE

AtualizadoSource: Space-Track

Época: Sep 14, 2026, 15:02 UTC

1 45461U 20021B   26257.62682889  .00002144  00000-0  15813-3 0  9998
2 45461  34.9953  25.1954 0003087 283.4602  76.5763 15.03037750353954

Acompanhe YAOGAN-30 S em tempo real com AllMySat

Download on the App Store